Hayward, WI

5:04 PM CDT on May 24, 2018 (GMT -0500)
Sawyer County

Weather History for KHYR - March, 2012

Change the Weather History Date:

Friday, March 16, 2012

  Actual Average Record
Temperature  
Mean Temperature 52 °F -  
Max Temperature 75 °F 34 °F 75 °F (2012)
Min Temperature 30 °F 1 °F -14 °F (1997)
Degree Days  
Heating Degree Days 12    
Growing Degree Days 2 (Base 50)    
Moisture  
Dew Point 41 °F    
Average Humidity 65    
Maximum Humidity 82    
Minimum Humidity 44    
Precipitation  
Precipitation 0.00 in - - ()
Sea Level Pressure  
Sea Level Pressure 29.95 in    
Wind  
Wind Speed 4 mph (SE)    
Max Wind Speed 12 mph    
Max Gust Speed 17 mph    
Visibility 10 miles    
Events      
Averages and records for this station are not official NWS values.
T = Trace of Precipitation, MM = Missing Value Source: NWS Daily Summary

Daily Weather History Graph

Daily Weather History Graph

Search for Another Location

Airport or City:

Astronomy

Mar. 16, 2012 Rise Set
Actual Time 7:15 AM CDT 7:13 PM CDT
Civil Twilight 6:45 AM CDT 7:43 PM CDT
Nautical Twilight 6:10 AM CDT 8:18 PM CDT
Astronomical Twilight 5:35 AM CDT 8:54 PM CDT
Moon 3:51 AM CDT (3/16) 1:17 PM CDT (3/16)
Length of Visible Light 12h 57m
Length of Day
11h 58m
Waning Crescent, 32% of the Moon is Illuminated
Mar 16
Waning Crescent
Mar 22
New
Mar 30
First Quarter
Apr 6
Full
Apr 13
Last Quarter

Hourly Weather History & Observations

Time (CDT) Temp. Windchill Dew Point Humidity Pressure Visibility Wind Dir Wind Speed Gust Speed Precip Events Conditions
12:53 AM 30.0 °F - 23.0 °F 75% 30.03 in 10.0 mi Calm Calm - N/A   Clear
1:53 AM 30.0 °F - 23.0 °F 75% 30.04 in 10.0 mi Calm Calm - N/A   Clear
2:53 AM 30.0 °F 25.2 °F 24.1 °F 79% 30.04 in 10.0 mi NNE 4.6 mph - N/A   Clear
3:53 AM 32.0 °F 28.7 °F 26.1 °F 79% 30.02 in 10.0 mi NE 3.5 mph - N/A   Clear
4:53 AM 37.9 °F 33.5 °F 25.0 °F 60% 30.02 in 10.0 mi NE 5.8 mph - N/A   Clear
5:53 AM 33.1 °F - 28.0 °F 82% 30.04 in 10.0 mi Calm Calm - N/A   Clear
6:53 AM 33.1 °F - 28.0 °F 82% 30.04 in 10.0 mi Calm Calm - N/A   Clear
7:53 AM 43.0 °F - 36.0 °F 76% 30.03 in 10.0 mi Calm Calm - N/A   Clear
8:53 AM 46.9 °F - 37.9 °F 71% 30.02 in 10.0 mi SE 9.2 mph - N/A   Partly Cloudy
9:53 AM 53.1 °F - 39.9 °F 61% 30.01 in 10.0 mi SE 5.8 mph - N/A   Clear
12:53 PM 64.9 °F - 45.0 °F 48% 29.96 in 10.0 mi SSE 9.2 mph 17.3 mph N/A   Clear
1:53 PM 69.1 °F - 48.0 °F 47% 29.93 in 10.0 mi South 9.2 mph - N/A   Clear
2:53 PM 72.0 °F - 50.0 °F 46% 29.90 in 10.0 mi SSE 6.9 mph - N/A   Scattered Clouds
3:53 PM 72.0 °F - 51.1 °F 48% 29.89 in 10.0 mi SSE 8.1 mph - N/A   Mostly Cloudy
4:53 PM 75.0 °F - 52.0 °F 44% 29.87 in 10.0 mi South 11.5 mph - N/A   Mostly Cloudy
5:53 PM 73.9 °F - 52.0 °F 46% 29.86 in 10.0 mi SW 3.5 mph - N/A   Clear
6:53 PM 66.0 °F - 52.0 °F 60% 29.87 in 10.0 mi Calm Calm - N/A   Clear
7:53 PM 55.9 °F - 48.9 °F 77% 29.88 in 10.0 mi Calm Calm - N/A   Clear
8:53 PM 61.0 °F - 51.1 °F 70% 29.87 in 10.0 mi SSE 4.6 mph - N/A   Clear
9:53 PM 62.1 °F - 53.1 °F 72% 29.86 in 10.0 mi SSE 5.8 mph - N/A   Clear
10:53 PM 64.0 °F - 53.1 °F 67% 29.85 in 10.0 mi SSE 8.1 mph - N/A   Partly Cloudy
11:53 PM 64.0 °F - 55.0 °F 73% 29.85 in 10.0 mi SSE 11.5 mph 17.3 mph N/A   Mostly Cloudy